#timestamp,LO_Frequency,Hit,StdDev 
1594029615.1,286047004.3,N
1594029616.0,286047004.3,N
1594029635.8,286047002.6,N
1594029655.7,286047000.1,N
1594029675.5,286046999.8,N
1594029695.3,286047000.0,N
1594029715.2,286047001.2,N
1594029735.0,286047000.7,N
1594029735.9,286047000.7,N
1594029755.7,286047000.0,N
1594029775.6,286047002.5,N
1594029795.4,286047002.3,N
1594029815.3,286047001.9,N
1594029835.1,286046999.7,N
1594029855.8,286047002.2,N
1594029875.7,286047001.0,N
1594029895.5,286046998.6,N
1594029915.4,286046998.3,N
1594029935.2,286046998.6,N
1594029955.0,286047000.6,N
1594029955.9,286047000.6,N
1594029975.8,286047001.4,N
1594029995.6,286047002.0,N
1594030015.4,286047001.9,N
1594030035.3,286047001.6,N
1594030055.1,286047001.6,N
1594030075.9,286047001.9,N
1594030095.7,286047002.2,N
1594030115.5,286047001.9,N
1594030135.4,286047001.8,N
1594030155.2,286047000.0,N
1594030175.1,286047000.2,N
1594030176.0,286047000.2,N
1594030195.8,286047000.6,N
1594030215.6,286047000.9,N
1594030235.5,286047000.0,N
1594030255.3,286046998.7,N
1594030275.2,286047000.7,N
1594030295.9,286047000.9,N
1594030315.7,286047002.7,N
1594030335.6,286047000.3,N
1594030355.4,286047000.2,N
1594030375.2,286047001.0,N
1594030395.1,286047001.2,N
1594030396.0,286047001.2,N
1594030415.8,286047000.2,N
1594030435.7,286047002.4,N
1594030455.5,286047001.9,N
1594030475.3,286047000.2,N
1594030495.2,286047001.8,N
1594030515.0,286047002.6,N
1594030515.9,286047002.6,N
1594030535.8,286047002.3,N
1594030555.6,286047000.3,N
1594030575.4,286047002.1,N
1594030595.3,286047002.4,N
1594030615.1,286046999.8,N
1594030635.9,286047000.0,N
1594030655.7,286047000.6,N
1594030675.5,286047000.9,N
1594030695.4,286047000.7,N
1594030715.2,286047002.5,N
1594030735.0,286046999.7,N
1594030735.9,286046999.7,N
1594030755.8,286047002.4,N
1594030775.6,286047001.6,N
1594030795.5,286047002.6,N
1594030815.3,286047002.1,N
1594030835.1,286047001.9,N
1594030855.9,286047004.3,Y
1594030875.7,286047000.3,P
1594030895.6,286047002.5,P
1594030915.4,286047001.5,N
1594030935.2,286047001.9,N
1594030955.1,286047001.8,N
1594030975.9,286047002.7,Y
1594030995.7,286047000.3,P
1594031015.5,286047000.1,N
1594031035.4,286047000.1,N
1594031055.2,286047002.7,Y
1594031075.0,286047000.9,P
1594031075.9,286047000.9,P
1594031095.8,286047000.1,N
1594031115.6,286047000.3,N
1594031135.5,286047001.6,Y
1594031155.3,286047002.7,P
1594031175.1,286047001.1,N
1594031195.9,286047000.0,N
1594031215.7,286046999.9,N
1594031235.6,286047002.0,N
1594031255.4,286047002.2,N
1594031275.2,286047002.1,N
1594031295.1,286047001.8,N
1594031296.0,286047001.8,N
1594031315.8,286047001.8,N
1594031335.6,286047001.4,N
1594031355.5,286047002.2,N
1594031375.3,286047002.4,N
1594031395.2,286047000.2,N
1594031415.9,286047000.1,N
1594031435.7,286047000.9,N
1594031455.6,286046998.6,N
1594031475.4,286046998.9,N
1594031495.2,286046997.0,N
1594031515.1,286046998.8,N
1594031516.0,286046998.8,N
1594031535.8,286047000.6,N
1594031555.7,286047000.2,N
1594031575.5,286047000.7,N
1594031595.3,286047000.8,N
1594031615.2,286046999.9,N
1594031635.0,286046999.9,N
1594031635.9,286046999.9,N
1594031655.8,286047000.0,N
1594031675.6,286047000.5,N
1594031695.4,286046998.7,N
1594031715.3,286046998.2,N
1594031735.1,286046999.3,N
1594031755.8,286047001.2,N
1594031775.7,286046999.6,N
1594031795.5,286046995.3,Y
1594031815.4,286046995.8,P
1594031835.2,286046997.5,N
1594031855.0,286046995.2,N
1594031855.9,286046995.2,N
1594031875.8,286046997.4,N
1594031895.8,286046996.8,N
1594031915.6,286046999.6,N
1594031935.5,286046996.7,N
1594031955.3,286046999.1,N
1594031975.2,286046997.3,N
1594031995.9,286046997.2,N
1594032015.7,286046996.6,N
1594032035.6,286046997.2,N
1594032055.4,286046996.5,N
1594032075.3,286046996.8,N
1594032095.1,286046999.1,N
1594032096.0,286046999.1,N
1594032115.8,286046996.9,N
1594032135.7,286046999.0,N
1594032155.5,286046999.6,N
1594032175.4,286046999.4,N
1594032195.2,286046997.8,N
1594032215.0,286046996.7,N
1594032215.9,286046996.7,N
1594032235.8,286046999.5,N
1594032255.6,286047001.4,N
1594032275.4,286047000.1,N
1594032295.3,286047000.4,N
1594032315.1,286047001.1,N
1594032335.9,286046998.6,N
1594032355.7,286046998.7,N
1594032375.5,286046998.1,N
1594032395.4,286046998.2,N
1594032415.2,286047001.2,N
1594032435.1,286047000.5,N
1594032436.0,286047000.5,N
1594032455.8,286047000.9,N
1594032475.6,286047000.9,N
1594032495.5,286046998.7,N
1594032515.3,286046998.1,N
1594032535.2,286046998.3,N
1594032555.9,286047001.1,N
1594032575.7,286046998.6,N
1594032595.6,286046999.6,N
1594032615.4,286046998.7,N
1594032635.2,286047000.4,N
1594032655.1,286047000.2,N
1594032656.0,286047000.2,N
1594032675.8,286047000.0,N
1594032695.7,286047000.6,N
1594032715.5,286047001.1,N
1594032735.3,286047001.1,N
1594032755.2,286047001.1,N
1594032775.0,286047000.8,N
1594032775.9,286047000.8,N
1594032795.8,286046999.6,N
1594032815.6,286046999.1,N
1594032835.4,286046999.0,N
1594032855.3,286046999.4,N
1594032875.1,286046999.6,N
1594032895.9,286047000.8,N
1594032915.7,286046998.4,N
1594032935.5,286046998.4,N
1594032955.4,286046998.4,N
1594032975.2,286046998.7,N
1594032995.0,286046998.5,N
1594032996.0,286046998.5,N
1594033015.8,286047002.0,N
1594033035.6,286046999.7,N
1594033055.5,286047000.2,N
1594033075.3,286047000.5,N
1594033095.2,286046999.4,N
1594033115.9,286047000.8,N
1594033135.7,286046998.5,N
1594033155.6,286047000.9,N
1594033175.4,286046999.2,N
1594033195.2,286046998.1,N
